Regional Weather Roundup
Issued by NWS

Home | Current Version | Previous Version | Graphics & Text | Print | Product List | Glossary On
Versions: 1 2 3 4 5 6 7 8 9 10 11 12 13 14 15 16 17 18 19 20 21 22 23 24 25 26 27
000
ASUS45 KTFX 190210
RWRMT
MONTANA REGIONAL WEATHER ROUNDUP
NATIONAL WEATHER SERVICE GREAT FALLS MT
800 PM MDT MON SEP 18 2017

NOTE: "FAIR" INDICATES FEW OR NO CLOUDS BELOW 12000 FEET WITH NO
SIGNIFICANT WEATHER AND/OR OBSTRUCTIONS TO VISIBILITY.

MTZ001>007-043-190300-
WEST OF THE DIVIDE

CITY           SKY/WX    TMP DP  RH WIND       PRES   REMARKS
KALISPELL      CLOUDY    46  44  93 S5        29.71S
MISSOULA       CLOUDY    46  32  58 CALM      29.77F
BUTTE          LGT RAIN  42  37  82 NW16G23   29.80R
MULLAN PASS    CLOUDY    32  30  92 SW6       29.74F FOG     WCI  26
ANACONDA         N/A     41  36  81 NE7       29.79R
DEER LODGE       N/A     41  37  87 NW14      29.78F
HAMILTON         N/A     45  37  76 CALM      29.78F
LIBBY            N/A     50  43  76 S5        29.66S
PLAINS           N/A     51  38  61 CALM      29.77
$$

MTZ008-052>055-190300-
SOUTHWEST MONTANA

CITY           SKY/WX    TMP DP  RH WIND       PRES   REMARKS
BOZEMAN        LGT RAIN  46  45  96 E13       29.76S FOG
DILLON         CLOUDY    48  40  73 S5        29.75R
W YELLOWSTONE  LGT RAIN  43  41  93 SW15G22   29.85S
ENNIS          LGT RAIN  45  41  87 NE5       29.83F
THREE FORKS      N/A     48  45  90 CALM      29.76F
TWIN BRIDGES     N/A     49  39  68 CALM      29.78R
$$

MTZ009-010-012-014-046-048-049-054-190300-
EAST SLOPES AND CENTRAL MONTANA

CITY           SKY/WX    TMP DP  RH WIND       PRES   REMARKS
CUT BANK       CLOUDY    49  33  54 SW15      29.62R
GREAT FALLS    LGT RAIN  48  40  73 W14       29.67R
MALMSTROM AFB  LGT RAIN  50  43  77 W10       29.68R
HELENA         CLOUDY    49  36  61 W24G32    29.73R
BOWMANS CRNR   LGT RAIN  44  36  71 W10       29.68R
CHOTEAU          N/A     50  30  46 W14G24    29.68R
FAIRFIELD      MOCLDY    48  37  67 W8        29.66R
POWER          LGT RAIN  46  40  80 W8        29.66R
RAYNESFORD     MOCLDY    55  39  55 SW9       29.66R
ULM            LGT RAIN  49  39  70 NW16G29   29.68R
$$

MTZ011-013-016-021-045-047-050-051-190300-
NORTH CENTRAL MONTANA

CITY           SKY/WX    TMP DP  RH WIND       PRES   REMARKS
HAVRE          CLOUDY    60  42  51 SW7       29.55F
LEWISTOWN      CLOUDY    57  41  55 SW8       29.66S
N BAR RANCH      N/A     55  39  54 SW9       29.69F
CHINOOK          N/A     64  43  45 E6        29.55F
DENTON         LGT RAIN  53  47  79 W10       29.62R
GEYSER         MOCLDY    54  39  56 W12       29.65R
GRASS RANGE    MOCLDY    61  39  44 S14       29.61S
JUDITH GAP     MOCLDY    54  41  61 W18       29.68S
WINIFRED       LGT RAIN  52  48  84 NW6       29.65R
$$

MTZ017>020-022>027-061-062-190300-
NORTHEAST MONTANA

CITY           SKY/WX    TMP DP  RH WIND       PRES   REMARKS
GLASGOW        CLOUDY    64  46  52 E9        29.58F
JORDAN           N/A     59  45  59 CALM      29.59F
SIDNEY         PTCLDY    64  45  49 CALM      29.64F
WOLF POINT     CLOUDY    70  41  34 CALM      29.60F
MALTA          CLOUDY    64  43  45 CALM      29.57S
PLENTYWOOD       N/A     66  43  42 SE5       29.65R
POPLAR           N/A     66  43  42 E6        29.61F
SCOBEY           N/A     61  39  44 S3        29.65S
$$

MTZ028>42-056>058-190300-
SOUTHCENTRAL AND SOUTHEAST MONTANA

CITY           SKY/WX    TMP DP  RH WIND       PRES   REMARKS
BAKER          CLOUDY    58  42  55 SE13      29.68F
BILLINGS       CLOUDY    66  38  35 NW17      29.62S
LIVINGSTON     CLOUDY    58  39  49 SW24G32   29.69R
MILES CITY     PTCLDY    69  34  27 E7        29.58F
BIG TIMBER     CLOUDY    59  37  44 W18G25    29.70S
EKALAKA          N/A     62  39  42 SE7       29.70
HARLOWTON      MOCLDY    55  42  62 MISG      29.68S
LAUREL           N/A     64  41  42 NW12      29.63S
$$

REGIONAL REPORTS...DAKOTAS

CITY           SKY/WX    TMP DP  RH WIND       PRES   REMARKS
WILLISTON      CLOUDY    66  45  46 SE13      29.67R
MINOT          CLOUDY    57  48  72 E8        29.75S
DICKINSON      CLEAR     58  44  60 SE10      29.71R
BEACH            N/A     57  43  58 SE10      29.71S
CROSBY           N/A     61  45  55 SE10      29.69S
TIOGA            N/A     59  46  63 SE10G17   29.72F
WATFORD CITY     N/A     59  46  63 SE12      29.68S
BISMARCK       CLEAR     55  50  83 E6        29.78R
GRAND FORKS    PTCLDY    59  57  93 SE12      29.83R
FARGO          CLOUDY    63  58  83 SE13G22   29.83S
BUFFALO SD       N/A     65  40  39 E14       29.64F
RAPID CITY     CLEAR     64  39  39 E10       29.73S
$$

REGIONAL REPORTS...WYOMING/IDAHO/WASHINGTON

CITY           SKY/WX    TMP DP  RH WIND       PRES   REMARKS
GILLETTE       CLOUDY    60  44  55 S7        29.69F
SHERIDAN       CLOUDY    63  39  41 NW6       29.63F
BUFFALO WY     CLOUDY    67  30  25 S13       29.70F
CODY           CLOUDY    62  36  37 SW9       29.71S
YELLOWSTONE LA   N/A     40  39  97 VRB6      29.92R
IDAHO FALLS    CLOUDY    57  42  57 S7        29.82F
SALMON         LGT RAIN  47  42  83 NW3       29.78R
BOISE          CLOUDY    57  51  80 CALM      29.74F
SPOKANE        MOCLDY    55  37  50 S12       29.69S
$$

REGIONAL REPORTS...ALBERTA

CITY           SKY/WX    TMP DP  RH WIND       PRES   REMARKS
EDMONTON       MOCLDY    52  43  71 N7        29.52S
CALGARY        MOCLDY    52  25  35 W20G28    29.51R
LETHBRIDGE     CLOUDY    55  34  44 SW10      29.54S
MEDICINE HAT   CLOUDY    61  41  48 S5        29.51S
$$

REGIONAL REPORTS...SASKATCHEWAN

CITY           SKY/WX    TMP DP  RH WIND       PRES   REMARKS
SWIFT CURRENT  CLOUDY    61  36  39 S8        29.57S
REGINA         MOCLDY    66  37  34 SE16G22   29.61S
SASKATOON      CLOUDY    63  43  48 E15       29.58F
$$




USA.gov is the U.S. government's official web portal to all federal, state and local government web resources and services.